Weather History for Green Bay, WI

Change the Weather History Date:

Friday, February 8, 2013

  Actual Average Record
Temperature  
Mean Temperature 14 °F 18 °F  
Max Temperature 27 °F 26 °F 56 °F (1925)
Min Temperature 1 °F 11 °F -22 °F (1951)
Degree Days  
Heating Degree Days 51 47  
Month to date heating degree days 432 378  
Since 1 July heating degree days 4597 4967  
Cooling Degree Days 0 0  
Month to date cooling degree days 0 0  
Year to date cooling degree days 0 0  
Moisture  
Dew Point 11 °F    
Average Humidity 77    
Maximum Humidity 92    
Minimum Humidity 62    
Precipitation  
Precipitation T in 0.03 in 1.78 in (1966)
Month to date precipitation 0.51 0.26  
Year to date precipitation 2.87 1.39  
Snow  
Snow 0.10 in 0.30 in 5.70 in (1950)
Month to date snowfall 5.9 3.0  
Since 1 July snowfall 45.0 33.3  
Snow Depth 9.00 in    
Sea Level Pressure  
Sea Level Pressure 30.34 in    
Wind  
Wind Speed 10 mph (NNW)    
Max Wind Speed 25 mph    
Max Gust Speed 33 mph    
Visibility 9 miles    
Events Snow    
T = Trace of Precipitation, MM = Missing Value Source: NWS Daily Summary

Daily Weather History Graph

Daily Weather History Graph

Search for Another Location

Airport:

Trip Planner

Search our weather history database for the weather conditions in past years. The results will help you decide how hot, cold, wet, or windy it might be!

Date:

Astronomy

Feb. 08, 2013 Rise Set
Actual Time 7:02 AM CST 5:12 PM CST
Civil Twilight 6:31 AM CST 5:42 PM CST
Nautical Twilight 5:57 AM CST 6:16 PM CST
Astronomical Twilight 5:23 AM CST 6:50 PM CST
Moon 5:32 AM CST (2/8) 3:43 PM CST (2/8)
Length of Visible Light 11h 10m
Length of Day
10h 09m
Waning Crescent, 3% of the Moon is Illuminated
Feb 8
Waning Crescent
Feb 10
New
Feb 17
First Quarter
Feb 25
Full
Mar 4
Last Quarter

Hourly Weather History & Observations

Time (CST) Temp. Windchill Dew Point Humidity Pressure Visibility Wind Dir Wind Speed Gust Speed Precip Events Conditions
12:17 AM 21.9 °F 7.3 °F 19.0 °F 89% 30.11 in 2.0 mi NNE 18.4 mph - 0.01 in Snow Light Snow
12:53 AM 21.9 °F 6.5 °F 18.0 °F 85% 30.15 in 5.0 mi NNE 20.7 mph 29.9 mph 0.01 in Snow Light Snow
1:53 AM 23.0 °F 8.0 °F 18.0 °F 81% 30.17 in 9.0 mi North 20.7 mph - 0.00 in   Overcast
2:53 AM 21.9 °F 6.5 °F 17.1 °F 82% 30.19 in 10.0 mi North 20.7 mph - N/A   Overcast
3:53 AM 21.9 °F 7.8 °F 16.0 °F 78% 30.21 in 10.0 mi North 17.3 mph - N/A   Overcast
4:53 AM 21.0 °F 7.1 °F 15.1 °F 78% 30.24 in 10.0 mi North 16.1 mph - N/A   Overcast
5:53 AM 19.9 °F 7.3 °F 14.0 °F 78% 30.26 in 10.0 mi North 12.7 mph - N/A   Overcast
6:53 AM 19.0 °F 6.1 °F 14.0 °F 81% 30.29 in 10.0 mi North 12.7 mph - N/A   Overcast
7:53 AM 17.1 °F 5.0 °F 12.0 °F 81% 30.33 in 10.0 mi North 10.4 mph - N/A   Partly Cloudy
8:53 AM 18.0 °F 4.8 °F 10.9 °F 74% 30.34 in 10.0 mi North 12.7 mph - N/A   Clear
9:53 AM 19.9 °F 5.7 °F 12.0 °F 71% 30.35 in 10.0 mi North 16.1 mph - N/A   Clear
10:53 AM 21.9 °F 9.2 °F 12.9 °F 68% 30.37 in 10.0 mi NNE 13.8 mph - N/A   Clear
11:53 AM 23.0 °F 9.6 °F 12.9 °F 65% 30.37 in 10.0 mi North 16.1 mph - N/A   Clear
12:53 PM 24.1 °F 15.2 °F 14.0 °F 65% 30.37 in 10.0 mi NNE 8.1 mph - N/A   Partly Cloudy
1:39 PM 24.1 °F 17.0 °F 15.1 °F 69% 30.33 in 10.0 mi WNW 5.8 mph - N/A   Mostly Cloudy
1:53 PM 27.0 °F - 16.0 °F 63% 30.37 in 10.0 mi Calm Calm - N/A   Scattered Clouds
2:00 PM 25.0 °F 15.5 °F 15.1 °F 66% 30.33 in 10.0 mi WNW 9.2 mph - N/A   Mostly Cloudy
2:13 PM 24.1 °F 14.4 °F 15.1 °F 69% 30.34 in 10.0 mi WNW 9.2 mph - N/A   Scattered Clouds
2:53 PM 24.1 °F 15.2 °F 14.0 °F 65% 30.38 in 10.0 mi WNW 8.1 mph - N/A   Clear
3:53 PM 23.0 °F 13.9 °F 12.0 °F 63% 30.38 in 10.0 mi WNW 8.1 mph - N/A   Clear
4:53 PM 21.0 °F 13.4 °F 10.9 °F 65% 30.38 in 10.0 mi NW 5.8 mph - N/A   Clear
5:53 PM 18.0 °F - 10.9 °F 74% 30.38 in 10.0 mi Calm Calm - N/A   Clear
6:53 PM 9.0 °F - 5.0 °F 84% 30.40 in 10.0 mi Calm Calm - N/A   Clear
7:53 PM 10.9 °F 4.7 °F 9.0 °F 92% 30.41 in 10.0 mi WSW 3.5 mph - N/A   Clear
8:53 PM 6.1 °F -0.9 °F 1.9 °F 83% 30.43 in 8.0 mi WSW 3.5 mph - N/A   Clear
9:53 PM 8.1 °F - 3.9 °F 83% 30.43 in 7.0 mi Calm Calm - N/A   Clear
10:53 PM 7.0 °F - 3.9 °F 87% 30.42 in 6.0 mi Calm Calm - N/A   Clear
11:53 PM 1.0 °F -6.7 °F -2.0 °F 87% 30.42 in 7.0 mi WNW 3.5 mph - N/A   Clear